#timestamp,LO_Frequency,Hit 
1501610435.5,286047007.3,P
1501610455.3,286047001.2,N
1501610475.2,286047003.8,N
1501610495.0,286047000.6,N
1501610495.9,286047000.6,N
1501610515.8,286047009.2,P
1501610535.6,286047003.6,N
1501610555.4,286046999.6,N
1501610575.3,286047008.5,N
1501610595.1,286047015.9,P
1501610615.8,286047023.9,P
1501610635.7,286047022.2,N
1501610655.5,286047026.1,P
1501610675.4,286047002.9,N
1501610695.2,286047016.0,N
1501610715.0,286047013.6,N
1501610715.9,286047013.6,N
1501610735.8,286047013.2,N
1501610755.6,286047004.9,N
1501610775.5,286047001.6,N
1501610795.3,286046999.3,N
1501610815.1,286047013.8,N
1501610835.9,286047017.9,N
1501610855.7,286047009.7,N
1501610875.5,286047027.6,P
1501610895.5,286047021.4,N
1501610915.4,286047006.7,N
1501610935.2,286047000.5,N
1501610955.0,286046995.4,N
1501610955.9,286046995.4,N
1501610975.8,286046993.7,N
1501610995.6,286046992.4,N
1501611015.4,286046991.5,N
1501611035.3,286046989.7,N
1501611055.1,286046985.4,N
1501611075.9,286046997.9,N
1501611095.7,286046998.4,N
1501611115.5,286046999.1,N
1501611135.4,286046990.3,N
1501611155.2,286046990.0,N
1501611175.0,286046987.0,N
1501611175.9,286046987.0,N
1501611195.8,286046991.6,N
1501611215.6,286046991.8,N
1501611235.5,286046992.0,N
1501611255.3,286046989.2,N
1501611275.1,286046989.3,N
1501611295.9,286046993.8,N
1501611315.7,286046990.5,N
1501611335.6,286046987.0,N
1501611355.4,286046994.4,N
1501611375.2,286046989.5,N
1501611395.8,286046990.9,N
1501611415.7,286046992.0,N
1501611435.5,286046990.7,N
1501611455.3,286046991.5,N
1501611475.2,286046987.4,N
1501611495.0,286046986.1,P
1501611495.9,286046986.1,P
1501611515.8,286046990.7,P
1501611535.6,286046987.6,P
1501611555.4,286046999.6,N
1501611575.3,286046995.9,N
1501611595.1,286046997.7,N
1501611615.9,286046995.6,N
1501611635.7,286046996.9,N
1501611655.5,286046994.9,N
1501611675.4,286046994.1,N
1501611695.2,286046996.5,N
1501611715.0,286046996.6,N
1501611715.9,286046996.6,N
1501611735.8,286046995.2,N
1501611755.6,286046993.3,N
1501611775.5,286046994.8,N
1501611795.3,286046991.4,N
1501611815.1,286046989.2,P
1501611835.9,286046995.8,N
1501611855.7,286047000.4,N
1501611875.3,286047000.9,N
1501611895.1,286046999.1,N
1501611915.9,286046997.5,N
1501611935.7,286046995.9,N
1501611955.6,286046995.6,N
1501611975.4,286047000.6,N
1501611995.2,286047000.3,N
1501612015.1,286046998.1,N
1501612016.0,286046998.1,N
1501612035.8,286047002.5,N
1501612055.6,286046999.9,N
1501612075.5,286047000.8,N
1501612095.3,286047002.8,N
1501612115.2,286046999.6,N
1501612135.9,286047002.5,N
1501612155.7,286046996.9,N
1501612175.6,286047000.6,N
1501612195.4,286046999.2,N
1501612215.2,286047000.3,N
1501612235.1,286047009.0,N
1501612236.0,286047009.0,N
1501612255.8,286047001.6,N
1501612275.7,286047002.2,N
1501612295.5,286047002.7,N
1501612315.3,286046998.2,N
1501612335.2,286046998.4,N
1501612355.0,286046999.4,N
1501612355.9,286046999.4,N
1501612375.8,286046999.6,N
1501612395.6,286046995.1,N
1501612415.4,286046997.2,N
1501612435.3,286046998.5,N
1501612455.1,286046998.8,N
1501612475.8,286046996.5,N
1501612495.7,286046999.0,N
1501612515.5,286046995.3,N
1501612535.4,286046996.2,N
1501612555.2,286046993.3,N
1501612575.0,286046995.6,N
1501612575.9,286046995.6,N
1501612595.8,286046995.8,N
1501612615.6,286046993.6,N
1501612635.5,286046997.7,N
1501612655.3,286046996.0,N
1501612675.1,286046993.9,N
1501612695.9,286046993.6,N
1501612715.7,286046992.8,N
1501612735.5,286046991.9,N
1501612755.4,286046992.7,N
1501612775.2,286046992.7,N
1501612795.1,286046990.1,N
1501612796.0,286046990.1,P
1501612815.8,286046998.3,N
1501612835.6,286047002.4,N
1501612855.5,286047002.7,N
1501612875.3,286046998.9,N
1501612895.1,286046996.9,N
1501612915.9,286046995.2,N
1501612935.7,286047000.8,N
1501612955.6,286046998.3,N
1501612975.4,286047000.3,N
1501612995.2,286047000.0,N
1501613015.1,286047003.3,N
1501613016.0,286047003.3,N
1501613035.8,286047005.5,N
1501613055.7,286047003.9,N
1501613075.5,286047003.4,N
1501613095.3,286047000.1,N
1501613115.2,286047000.5,N
1501613135.0,286047000.3,N
1501613135.9,286047000.3,N
1501613155.7,286047002.2,N
1501613175.6,28601501613315.1,286047023.2,P
1501613335.9,286047021.8,P
1501613355.7,286047017.5,P
1501613375.6,286047017.7,P
1501613395.6,286046996.5,P
1501613415.4,286046998.5,N
1501613435.2,286046997.1,N
1501613455.1,286046995.8,N
1501613456.0,286046995.8,N
1501613475.8,286046992.3,N
1501613495.7,286046991.0,N
1501613515.5,286046990.1,N
1501613535.3,286047002.2,N
1501613555.2,286046996.9,N
1501613575.0,286046992.3,N
1501613575.9,286046992.3,N
1501613595.7,286046997.2,N
1501613615.6,286047017.8,N
1501613635.4,286047010.9,N
1501613655.3,286047004.5,N
1501613675.1,286047006.6,N
1501613676.0,286047006.6,N
1501613695.8,286047012.4,N
1501613715.7,286047008.3,N
1501613735.5,286047011.9,N
1501613755.3,286047012.9,N
1501613775.2,286047014.8,N
1501613795.0,286047013.0,N
1501613795.9,286047013.0,N
1501613815.8,286047013.9,N
1501613835.6,286047015.1,N
1501613855.4,286047014.8,N
1501613875.3,286047011.8,N
1501613895.1,286047011.0,N
1501613915.9,286047015.4,N
1501613935.7,286047017.3,N
1501613955.5,286047029.8,P
1501613975.4,286047035.3,N
1501613995.2,286047055.5,P
